Location: *
(40.9167°N, 9.5000°E)
Time: 00:46:29
(UTC+00:00)

SJ-6B - Pass Details

Date: 09 April 2020
Orbit: 509 x 582 km, 97.6° (Epoch: 05 June)

Event Time Altitude Azimuth Distance (km) Brightness Sun altitude
Exits shadow 18:39:38 - 145° (SE) 2,210 5.4 -8.8°
Reaches altitude 10° 18:40:27 10° 141° (SE) 1,890 5.0 -9.0°
Maximum altitude 18:44:18 40° 72° (ENE) 870 3.5 -9.7°
Drops below altitude 10° 18:48:10 10° 3° (N) 1,908 5.8 -10.4°
Sets 18:50:25 0° 356° (N) 2,809 6.8 -10.8°
